Sydney, Australia

10:05 PM AEST on April 24, 2017 (GMT +1000)
Kingsford Smith International

Weather History for YSSY - September, 2013

Change the Weather History Date:

Saturday, September 14, 2013

  Actual Average Record
Temperature  
Mean Temperature 62 °F -  
Max Temperature 68 °F 70 °F 84 °F (2007)
Min Temperature 57 °F 53 °F 44 °F (2012)
Degree Days  
Heating Degree Days 2    
Growing Degree Days 12 (Base 50)    
Moisture  
Dew Point 55 °F    
Average Humidity 74    
Maximum Humidity 94    
Minimum Humidity 47    
Precipitation  
Precipitation 0.00 in 0.09 in - ()
Sea Level Pressure  
Sea Level Pressure 29.88 in    
Wind  
Wind Speed 15 mph ()    
Max Wind Speed 25 mph    
Max Gust Speed 22 mph    
Visibility 6.9 miles    
Events Rain , Thunderstorm    
Averages and records for this station are not official NWS values.
T = Trace of Precipitation, MM = Missing Value Source: Averaged Metar Reports

Daily Weather History Graph

Daily Weather History Graph

Search for Another Location

Airport or City:

Trip Planner

Search our weather history database for the weather conditions in past years. The results will help you decide how hot, cold, wet, or windy it might be!

Date:

Astronomy

Sep. 14, 2013 Rise Set
Actual Time 5:56 AM AEST 5:45 PM AEST
Civil Twilight 5:31 AM AEST 6:10 PM AEST
Nautical Twilight 5:02 AM AEST 6:39 PM AEST
Astronomical Twilight 4:33 AM AEST 7:09 PM AEST
Moon 12:11 PM AEST (9/14) 1:31 AM AEST (9/14)
Length of Visible Light 12h 39m
Length of Day
11h 49m
Waxing Gibbous, 66% of the Moon is Illuminated
Sep 14
Waxing Gibbous
Sep 19
Full
Sep 27
Last Quarter
Oct 5
New
Oct 12
First Quarter

Hourly Weather History & Observations

Time (AEST) Temp. Dew Point Humidity Pressure Visibility Wind Dir Wind Speed Gust Speed Precip Events Conditions
12:00 AM 60 °F 49 °F 58% 30.01 in 11 mi ENE 15.0 mph - - Rain Light Rain
12:00 AM 60.8 °F 48.2 °F 63% 30.01 in 6.2 mi ENE 15.0 mph - N/A Rain Light Rain Showers
12:30 AM 62.6 °F 48.2 °F 59% 29.98 in 6.2 mi NE 17.3 mph - N/A   Mostly Cloudy
1:00 AM 61 °F 48 °F 52% 29.96 in - ENE 19.6 mph - -  
1:30 AM 60.8 °F 50.0 °F 68% 29.95 in 6.2 mi ENE 17.3 mph - N/A Rain Light Rain Showers
2:00 AM 60 °F 50 °F 62% 29.96 in - NE 17.3 mph - -  
2:00 AM 60.8 °F 50.0 °F 68% 29.95 in 6.2 mi NE 17.3 mph - N/A Rain Light Rain Showers
3:00 AM 59 °F 54 °F 77% 29.94 in 7 mi NE 16.1 mph - - Rain Light Rain Showers
3:12 AM 59.0 °F 53.6 °F 82% 29.92 in 3.1 mi NE 19.6 mph - N/A Rain Rain Showers
3:30 AM 59.0 °F 55.4 °F 88% 29.89 in 3.7 mi ENE 19.6 mph - N/A Rain Rain Showers
4:00 AM 58 °F 55 °F 87% 29.89 in - ENE 19.6 mph - -  
4:00 AM 59.0 °F 55.4 °F 88% 29.89 in 5.0 mi ENE 19.6 mph - N/A Rain Light Rain Showers
4:20 AM 59.0 °F 57.2 °F 94% 29.89 in 3.1 mi ENE 16.1 mph - N/A Rain Rain Showers
4:30 AM 59.0 °F 57.2 °F 94% 29.89 in 3.1 mi ENE 17.3 mph - N/A Rain , Thunderstorm Light Thunderstorms and Rain
5:00 AM 60 °F 57 °F 87% 29.90 in - NE 13.8 mph - -  
5:00 AM 59.0 °F 57.2 °F 94% 29.89 in 5.0 mi NE 13.8 mph - N/A Rain Light Rain Showers
5:30 AM 60.8 °F 57.2 °F 88% 29.89 in 6.2 mi NNE 9.2 mph - N/A Rain Light Rain Showers
6:00 AM 61 °F 57 °F 83% 29.89 in 9 mi NW 6.9 mph - -   Overcast
6:00 AM 60.8 °F 57.2 °F 88% 29.89 in 6.2 mi NW 6.9 mph - N/A   Mostly Cloudy
6:30 AM 60.8 °F 57.2 °F 88% 29.89 in 6.2 mi WNW 8.1 mph - N/A   Mostly Cloudy
7:00 AM 60 °F 57 °F 86% 29.88 in - West 8.1 mph - -  
7:00 AM 60.8 °F 57.2 °F 88% 29.86 in 6.2 mi West 8.1 mph - N/A   Mostly Cloudy
7:30 AM 60.8 °F 57.2 °F 88% 29.86 in 6.2 mi West 8.1 mph - N/A   Mostly Cloudy
8:00 AM 62 °F 57 °F 77% 29.88 in - WNW 9.2 mph - -  
8:00 AM 62.6 °F 57.2 °F 82% 29.86 in 6.2 mi WNW 9.2 mph - N/A   Mostly Cloudy
8:30 AM 64.4 °F 57.2 °F 77% 29.86 in 6.2 mi NW 10.4 mph - N/A   Partly Cloudy
9:00 AM 66 °F 54 °F 57% 29.86 in 11 mi WNW 11.5 mph - -   Haze
9:00 AM 66.2 °F 53.6 °F 64% 29.86 in 6.2 mi WNW 11.5 mph - N/A   Scattered Clouds
9:30 AM 64.4 °F 53.6 °F 68% 29.86 in 6.2 mi West 15.0 mph - N/A   Mostly Cloudy
10:00 AM 66 °F 52 °F 51% 29.85 in - WNW 13.8 mph - -  
10:00 AM 66.2 °F 51.8 °F 60% 29.83 in 6.2 mi WNW 13.8 mph - N/A   Mostly Cloudy
10:30 AM 66.2 °F 51.8 °F 60% 29.83 in 6.2 mi West 15.0 mph - N/A   Scattered Clouds
11:00 AM 68 °F 53 °F 47% 29.82 in - West 15.0 mph - -  
11:00 AM 68.0 °F 51.8 °F 56% 29.80 in 6.2 mi West 15.0 mph - N/A   Partly Cloudy
11:30 AM 68.0 °F 53.6 °F 60% 29.80 in 6.2 mi WSW 10.4 mph - N/A   Partly Cloudy
12:00 PM 65 °F 57 °F 68% 29.81 in 16 mi South 17.3 mph - -   Haze
12:00 PM 64.4 °F 57.2 °F 77% 29.80 in 6.2 mi South 17.3 mph - N/A   Mostly Cloudy
12:30 PM 64.4 °F 57.2 °F 77% 29.80 in 6.2 mi South 20.7 mph - N/A   Mostly Cloudy
1:00 PM 64 °F 56 °F 68% 29.81 in - South 20.7 mph - -  
1:00 PM 64.4 °F 55.4 °F 73% 29.80 in 6.2 mi South 20.7 mph - N/A   Mostly Cloudy
1:30 PM 64.4 °F 57.2 °F 77% 29.80 in 6.2 mi South 23.0 mph - N/A   Mostly Cloudy
2:00 PM 65 °F 56 °F 65% 29.81 in - South 21.9 mph - -  
2:00 PM 64.4 °F 55.4 °F 73% 29.80 in 6.2 mi South 21.9 mph - N/A   Scattered Clouds
2:30 PM 66.2 °F 53.6 °F 64% 29.80 in 6.2 mi South 23.0 mph - N/A   Partly Cloudy
3:00 PM 64 °F 56 °F 68% 29.81 in 19 mi South 24.2 mph - -   Partly Cloudy
3:00 PM 64.4 °F 55.4 °F 73% 29.80 in 6.2 mi South 24.2 mph - N/A   Partly Cloudy
3:30 PM 64.4 °F 55.4 °F 73% 29.80 in 6.2 mi South 25.3 mph - N/A   Partly Cloudy
4:00 PM 64 °F 54 °F 62% 29.83 in - South 23.0 mph - -  
4:00 PM 64.4 °F 53.6 °F 68% 29.83 in 6.2 mi South 23.0 mph - N/A   Partly Cloudy
4:30 PM 62.6 °F 55.4 °F 77% 29.83 in 6.2 mi South 24.2 mph - N/A   Partly Cloudy
5:00 PM 63 °F 54 °F 66% 29.85 in - South 25.3 mph - -  
5:00 PM 62.6 °F 55.4 °F 77% 29.83 in 6.2 mi South 25.3 mph - N/A   Partly Cloudy
5:30 PM 62.6 °F 55.4 °F 77% 29.86 in 6.2 mi South 23.0 mph - N/A   Partly Cloudy
6:00 PM 62 °F 56 °F 73% 29.89 in 16 mi South 16.1 mph - -   Haze
6:00 PM 62.6 °F 55.4 °F 77% 29.89 in 6.2 mi South 16.1 mph - N/A   Partly Cloudy
6:30 PM 62.6 °F 57.2 °F 82% 29.89 in 6.2 mi South 17.3 mph - N/A   Partly Cloudy
7:00 PM 62 °F 58 °F 81% 29.92 in - South 16.1 mph - -  
7:00 PM 62.6 °F 57.2 °F 82% 29.92 in 6.2 mi South 16.1 mph - N/A   Partly Cloudy
7:30 PM 62.6 °F 57.2 °F 82% 29.92 in 6.2 mi South 15.0 mph - N/A   Partly Cloudy
8:00 PM 62 °F 58 °F 81% 29.94 in - South 15.0 mph - -  
8:00 PM 62.6 °F 57.2 °F 82% 29.92 in 6.2 mi South 15.0 mph - N/A   Partly Cloudy
8:30 PM 60.8 °F 55.4 °F 82% 29.95 in 6.2 mi SSW 10.4 mph - N/A   Partly Cloudy
9:00 PM 61 °F 54 °F 71% 29.96 in 16 mi SSW 11.5 mph - -   Scattered Clouds
9:00 PM 60.8 °F 53.6 °F 77% 29.95 in 6.2 mi SSW 11.5 mph - N/A   Partly Cloudy
9:30 PM 59.0 °F 53.6 °F 82% 29.95 in 6.2 mi WSW 10.4 mph 21.9 mph N/A   Partly Cloudy
10:00 PM 59 °F 52 °F 72% 29.97 in - West 9.2 mph - -  
10:00 PM 59.0 °F 51.8 °F 77% 29.95 in 6.2 mi West 9.2 mph - N/A   Partly Cloudy
10:30 PM 59.0 °F 51.8 °F 77% 29.95 in 6.2 mi West 10.4 mph - N/A   Partly Cloudy
11:00 PM 58 °F 51 °F 72% 29.98 in - WSW 9.2 mph - -  
11:00 PM 59.0 °F 51.8 °F 77% 29.98 in 6.2 mi WSW 9.2 mph - N/A   Partly Cloudy
11:30 PM 59.0 °F 51.8 °F 77% 29.98 in 6.2 mi WSW 10.4 mph - N/A   Scattered Clouds